DIRECTV 4S

Last updated on Sept. 29, 2020, 5:50 a.m. UTC

1 26985U 01052A   20272.87271623 -.00000249  00000-0  00000-0 0  9993
2 26985   0.9511  94.3938 0003209  10.3556  22.8476  0.99268239 30356
UTC
Height (km)
Latitude
Longitude
Inclination
Orbital Period
UTC large
Height (km)
Speed (km/s)
/
Latitude / Longitude
Inclination (degrees)
Orbital Period (minutes)
Azimuth
Elevation
Range (km)
Doppler Factor
iOS Compass Heading
iOS Angle

Next 30 passes for location: Hong Kong

Rise time Rise Azimuth (degrees) Set time Set Azimuth (degrees) Duration Max altitude (degrees)

No matching passes for this satellites